Regional Weather Roundup
Issued by NWS

Home | Current Version | Previous Version | Graphics & Text | Print | Product List | Glossary On
Versions: 1 2 3 4 5 6 7 8 9 10 11 12 13 14 15 16 17 18 19 20 21 22 23 24 25 26 27
000
ASUS45 KTFX 240510
RWRMT
MONTANA REGIONAL WEATHER ROUNDUP
NATIONAL WEATHER SERVICE GREAT FALLS MT
1100 PM MDT TUE MAY 23 2017

NOTE: "FAIR" INDICATES FEW OR NO CLOUDS BELOW 12000 FEET WITH NO
SIGNIFICANT WEATHER AND/OR OBSTRUCTIONS TO VISIBILITY.

MTZ001>007-043-240600-
WEST OF THE DIVIDE

CITY           SKY/WX    TMP DP  RH WIND       PRES   REMARKS
KALISPELL      CLEAR     68  38  33 W10       29.64F
MISSOULA       CLEAR     63  44  50 E3        29.74F
BUTTE          CLEAR     57  40  52 S7        29.89F
MULLAN PASS    CLEAR     55  38  52 SW13G23   29.84F
ANACONDA         N/A     64  37  36 SW7       29.85F
DEER LODGE       N/A     61  41  48 CALM      29.85F
EUREKA           N/A     70  43  37 SE8       29.60F
HAMILTON         N/A     64  45  48 SE7       29.78F
PLAINS           N/A     63  42  46 W2        29.72F
RONAN            N/A     67  42  40 SE8       29.78F
$$

MTZ008-052>055-240600-
SOUTHWEST MONTANA

CITY           SKY/WX    TMP DP  RH WIND       PRES   REMARKS
BOZEMAN        CLEAR     58  43  57 S10       29.81F
DILLON         CLEAR     59  37  44 S9        29.88F
W YELLOWSTONE  CLEAR     54  37  54 CALM      30.04F
ENNIS          CLEAR     61  39  44 S17       29.95F
$$

MTZ009-010-012-014-046-048-049-054-240600-
EAST SLOPES AND CENTRAL MONTANA

CITY           SKY/WX    TMP DP  RH WIND       PRES   REMARKS
CUT BANK       MOCLDY    68  37  32 SW31G40   29.58F
GREAT FALLS    PTCLDY    61  45  55 SW9       29.66F
HELENA         CLEAR     70  36  28 SW8       29.75F
CHOTEAU          N/A     66  39  37 W16       29.67F
CONRAD           N/A     62  47  58 SW7       29.69F
$$

MTZ011-013-016-021-045-047-050-051-240600-
NORTH CENTRAL MONTANA

CITY           SKY/WX    TMP DP  RH WIND       PRES   REMARKS
HAVRE          MOCLDY    69  44  40 S16       29.56F
LEWISTOWN      CLOUDY    62  44  51 S12       29.73F
N BAR RANCH      N/A     59  41  51 SW5       29.81F
CHINOOK          N/A     70  45  40 SE13      29.58F
$$

MTZ017>020-022>027-061-062-240600-
NORTHEAST MONTANA

CITY           SKY/WX    TMP DP  RH WIND       PRES   REMARKS
GLASGOW        CLEAR     58  34  40 SE15      29.74F
JORDAN           N/A     57  33  40 S13       29.76F
SIDNEY         PTCLDY    58  33  39 S10       29.85F
WOLF POINT     CLEAR     60  33  36 SE3       29.78F
MALTA          CLEAR     64  36  34 S16G23    29.66F
PLENTYWOOD       N/A     55  34  44 SE10      29.81F
POPLAR           N/A     59  30  33 SE9       29.80F
SCOBEY           N/A     59  30  33 SE9       29.77F
$$

MTZ028>42-056>058-240600-
SOUTHCENTRAL AND SOUTHEAST MONTANA

CITY           SKY/WX    TMP DP  RH WIND       PRES   REMARKS
BAKER          MOCLDY    51  37  58 S14       29.91F
BILLINGS       PTCLDY    59  44  57 S5        29.79F
LIVINGSTON     CLEAR     56  45  66 VRB5      29.81F
MILES CITY     CLEAR     55  36  48 S9        29.83F
BIG TIMBER     CLEAR     52  45  76 W6        29.83F
EKALAKA          N/A     51  31  46 SE9       29.90F
FORSYTH          N/A     59  36  41 SE8       29.79F
LAUREL           N/A     58  37  45 SW5       29.80F
ROUNDUP          N/A     62  35  36 SE8       29.71F
$$

REGIONAL REPORTS...DAKOTAS

CITY           SKY/WX    TMP DP  RH WIND       PRES   REMARKS
WILLISTON      PTCLDY    59  37  44 S12       29.86F
MINOT          PTCLDY    56  35  45 SE13      29.90F
DICKINSON      CLEAR     44  32  62 SE8       29.91F
BEACH            N/A     52  34  50 SE10      29.93F
TIOGA            N/A     55  36  47 S10       29.88F
WATFORD CITY     N/A     55  32  41 SE12      29.87F
BISMARCK       CLOUDY    50  38  63 CALM      29.96F
GRAND FORKS    CLEAR     46  42  86 SW5       29.92F
FARGO          CLEAR     44  40  85 N7        29.92F
BUFFALO SD       N/A     50  37  61 SE9       29.87F
RAPID CITY     CLOUDY    41  34  76 CALM      29.99F
$$

REGIONAL REPORTS...WYOMING/IDAHO/WASHINGTON

CITY           SKY/WX    TMP DP  RH WIND       PRES   REMARKS
GILLETTE       CLEAR     45  39  79 S10       29.94F
SHERIDAN       CLEAR     45  40  82 S6        29.87F
BUFFALO WY     CLEAR     53  39  59 S14       29.94F
CODY           CLEAR     53  39  59 S9        29.92F
YELLOWSTONE LA   N/A     37  34  89 CALM      30.14F
IDAHO FALLS    CLEAR     64  35  34 S13       29.97F
SALMON         CLEAR     59  43  55 SW9       29.84S
BOISE          CLEAR     70  41  34 SE10      29.82F
SPOKANE        PTCLDY    68  41  37 W12       29.67F
$$

REGIONAL REPORTS...ALBERTA

CITY           SKY/WX    TMP DP  RH WIND       PRES   REMARKS
EDMONTON       CLEAR     63  46  55 NE9       29.23F
CALGARY        PTCLDY    66  39  37 S10G17    29.37F
LETHBRIDGE     PTCLDY    66  41  39 SW17      29.49F
MEDICINE HAT   CLEAR     66  43  42 S12       29.45F
WATERTON GATE    N/A     64  36  34 W9G17       N/A
CARDSTON         N/A     61  37  41 S8          N/A
MILK RIVER       N/A     64  45  48 S10         N/A
$$

REGIONAL REPORTS...SASKATCHEWAN

CITY           SKY/WX    TMP DP  RH WIND       PRES   REMARKS
SWIFT CURRENT  CLOUDY    59  32  36 S22G29    29.59F
REGINA         PTCLDY    57  30  35 S14       29.72F
SASKATOON      PTCLDY    64  34  32 S20G28    29.55F
CYPRESS HILLS    N/A     57  37  47 S10         N/A
VAL MARIE        N/A     59  28  31 S20         N/A
ROCKGLEN         N/A     52  32  46 S18         N/A
$$




USA.gov is the U.S. government's official web portal to all federal, state and local government web resources and services.